Location: ????????
(55.3155°N, 39.2900°E)
Time: 18:47:47
(UTC+00:00)

ACS3 Solar Sail - Pass Details

Date: 16 November 2025
Orbit: 889 x 1003 km, 97.3° (Epoch: 06 December)

Event Time Altitude Azimuth Distance (km) Brightness Sun altitude
Rises 00:42:01 0° 14° (NNE) 3,555 5.1 -35.7°
Reaches altitude 10° 00:44:26 10° 17° (NNE) 2,623 4.4 -35.4°
Enters shadow 00:48:23 44° 33° (NNE) 1,275 2.6 -34.9°
